This is the latest recevied weather packets stored in our database for station/object KA1STV. If no packets are shown the sender has not sent any weather packets the latest 1 day(s).
| Time | Temp. | Humidity | Pressure | Rain* | Wind** | Luminosity | Snow |
|---|---|---|---|---|---|---|---|
| 1778010223 | 26.67° C | 46% | 1005 hPa | 0 mm | 0.45 m/s, 73° | 179 W/m² | - |
| 1778009918 | 26.67° C | 45% | 1005 hPa | 0 mm | 2.24 m/s, 190° | 166 W/m² | - |
| 1778009616 | 27.78° C | 42% | 1004.8 hPa | 0 mm | 2.24 m/s, 93° | 209 W/m² | - |
| 1778009313 | 27.22° C | 38% | 1004.9 hPa | 0 mm | 0.89 m/s, 234° | 429 W/m² | - |
| 1778009012 | 27.22° C | 44% | 1004.9 hPa | 0 mm | 1.79 m/s, 230° | 215 W/m² | - |
| 1778008709 | 27.22° C | 44% | 1005.2 hPa | 0 mm | 1.34 m/s, 206° | 201 W/m² | - |
| 1778008407 | 27.78° C | 39% | 1004.8 hPa | 0 mm | 0.89 m/s, 340° | 143 W/m² | - |
| 1778008103 | 27.78° C | 35% | 1004.9 hPa | 0 mm | 1.34 m/s, 180° | 106 W/m² | - |
| 1778007799 | 27.22° C | 35% | 1005.2 hPa | 0 mm | 3.13 m/s, 265° | 235 W/m² | - |
| 1778007495 | 27.22° C | 36% | 1005.3 hPa | 0 mm | 2.24 m/s, 97° | 172 W/m² | - |
| 1778007191 | 27.78° C | 36% | 1005.3 hPa | 0 mm | 1.34 m/s, 164° | 142 W/m² | - |
| 1778006888 | 27.78° C | 35% | 1005.7 hPa | 0 mm | 0.89 m/s, 203° | 119 W/m² | - |
| 1778006585 | 27.78° C | 36% | 1005.3 hPa | 0 mm | 1.34 m/s, 176° | 629 W/m² | - |
| 1778006282 | 27.22° C | 37% | 1005.3 hPa | 0 mm | 1.79 m/s, 174° | 452 W/m² | - |
| 1778005979 | 27.22° C | 37% | 1005.2 hPa | 0 mm | 2.24 m/s, 285° | 592 W/m² | - |
| 1778005676 | 26.67° C | 37% | 1005.3 hPa | 0 mm | 0.89 m/s, 282° | 652 W/m² | - |
| 1778005372 | 26.67° C | 38% | 1005.5 hPa | 0 mm | 0.45 m/s, 211° | 143 W/m² | - |
| 1778005069 | 27.22° C | 39% | 1005.5 hPa | 0 mm | 1.34 m/s, 213° | 155 W/m² | - |
| 1778004766 | 26.11° C | 41% | 1005.4 hPa | 0 mm | 0.89 m/s, 64° | 707 W/m² | - |
| 1778004463 | 26.67° C | 46% | 1005.6 hPa | 0 mm | 0.89 m/s, 251° | 126 W/m² | - |
| 1778004159 | 26.67° C | 47% | 1005.6 hPa | 0 mm | 0.89 m/s, 233° | 256 W/m² | - |
| 1778003856 | 26.67° C | 45% | 1005.6 hPa | 0 mm | 1.34 m/s, 116° | 215 W/m² | - |
| 1778003552 | 26.67° C | 47% | 1005.7 hPa | 0 mm | 1.34 m/s, 202° | 295 W/m² | - |
| 1778003249 | 26.11° C | 47% | 1006 hPa | 0 mm | 1.79 m/s, 236° | 393 W/m² | - |
| 1778002946 | 26.11° C | 47% | 1006 hPa | 0 mm | 2.24 m/s, 249° | 170 W/m² | - |
* Rain latest hour (hover to see other rain measurements)
** Current wind speed in m/s (hover to see current wind gust speed)